Weather History for Monterey, CA

Change the Weather History Date:

Thursday, June 13, 2013

  Actual Average Record
Temperature  
Mean Temperature 58 °F 59 °F  
Max Temperature 63 °F 67 °F 74 °F (2010)
Min Temperature 52 °F 52 °F 46 °F (2001)
Degree Days  
Heating Degree Days 7    
Month to date heating degree days 70  
Since 1 June heating degree days 70  
Since 1 July heating degree days 3216  
Cooling Degree Days 0    
Month to date cooling degree days 0  
Year to date cooling degree days 7  
Since 1 June cooling degree days 0  
Growing Degree Days 8 (Base 50)    
Moisture  
Dew Point 48 °F    
Average Humidity 72    
Maximum Humidity 83    
Minimum Humidity 60    
Precipitation  
Precipitation 0.00 in - 0.02 in (1998)
Month to date precipitation 0.00  
Year to date precipitation 3.11  
Since 1 July precipitation 11.35  
Sea Level Pressure  
Sea Level Pressure 30.12 in    
Wind  
Wind Speed 9 mph (SW)    
Max Wind Speed 15 mph    
Max Gust Speed 20 mph    
Visibility 10 miles    
Events      
T = Trace of Precipitation, MM = Missing Value Source: NWS Daily Summary

Daily Weather History Graph

Daily Weather History Graph

Search for Another Location

Airport:

Trip Planner

Search our weather history database for the weather conditions in past years. The results will help you decide how hot, cold, wet, or windy it might be!

Date:

Astronomy

Jun. 13, 2013 Rise Set
Actual Time 5:48 AM PDT 8:26 PM PDT
Civil Twilight 5:17 AM PDT 8:57 PM PDT
Nautical Twilight 4:39 AM PDT 9:35 PM PDT
Astronomical Twilight 3:57 AM PDT 10:17 PM PDT
Moon 10:23 AM PDT (6/13) 11:43 PM PDT (6/13)
Length of Visible Light 15h 39m
Length of Day
14h 38m
Waxing Crescent, 22% of the Moon is Illuminated
Jun 13
Waxing Crescent
Jun 16
First Quarter
Jun 23
Full
Jun 29
Last Quarter
Jul 8
New

Hourly Weather History & Observations

Time (PDT) Temp. Dew Point Humidity Pressure Visibility Wind Dir Wind Speed Gust Speed Precip Events Conditions
12:54 AM 53.1 °F 46.9 °F 80% 30.12 in 10.0 mi SW 10.4 mph - N/A   Clear
1:21 AM 53.6 °F 48.2 °F 82% 30.08 in 10.0 mi South 8.1 mph - N/A   Mostly Cloudy
1:54 AM 54.0 °F 48.0 °F 80% 30.12 in 10.0 mi SW 9.2 mph - N/A   Overcast
2:54 AM 54.0 °F 48.0 °F 80% 30.11 in 9.0 mi SSW 6.9 mph - N/A   Overcast
3:54 AM 54.0 °F 48.0 °F 80% 30.11 in 9.0 mi SW 8.1 mph - N/A   Overcast
4:54 AM 54.0 °F 46.9 °F 77% 30.12 in 10.0 mi SSW 8.1 mph - N/A   Overcast
5:54 AM 53.1 °F 48.0 °F 83% 30.13 in 9.0 mi South 5.8 mph - N/A   Overcast
6:02 AM 53.6 °F 46.4 °F 77% 30.09 in 8.0 mi South 4.6 mph - N/A   Overcast
6:20 AM 53.6 °F 46.4 °F 77% 30.09 in 8.0 mi South 4.6 mph - N/A   Overcast
6:54 AM 53.1 °F 48.0 °F 83% 30.14 in 9.0 mi South 4.6 mph - N/A   Overcast
7:26 AM 53.6 °F 46.4 °F 77% 30.10 in 10.0 mi South 6.9 mph - N/A   Scattered Clouds
7:54 AM 55.9 °F 48.0 °F 75% 30.14 in 10.0 mi SW 8.1 mph - N/A   Clear
8:54 AM 57.9 °F 48.0 °F 70% 30.15 in 10.0 mi West 5.8 mph - N/A   Clear
9:54 AM 57.9 °F 48.9 °F 72% 30.16 in 10.0 mi West 8.1 mph - N/A   Clear
10:54 AM 59.0 °F 48.9 °F 69% 30.15 in 10.0 mi West 9.2 mph - N/A   Clear
11:54 AM 59.0 °F 50.0 °F 72% 30.16 in 10.0 mi WNW 11.5 mph - N/A   Clear
12:54 PM 60.1 °F 48.9 °F 67% 30.16 in 10.0 mi West 12.7 mph - N/A   Clear
1:54 PM 62.1 °F 50.0 °F 65% 30.15 in 10.0 mi West 13.8 mph 18.4 mph N/A   Clear
2:54 PM 62.1 °F 48.9 °F 62% 30.14 in 10.0 mi West 12.7 mph 19.6 mph N/A   Clear
3:54 PM 63.0 °F 48.9 °F 60% 30.13 in 10.0 mi West 11.5 mph - N/A   Clear
4:54 PM 62.1 °F 48.0 °F 60% 30.12 in 10.0 mi WSW 12.7 mph - N/A   Clear
5:54 PM 62.1 °F 48.0 °F 60% 30.11 in 10.0 mi West 10.4 mph 17.3 mph N/A   Clear
6:54 PM 61.0 °F 48.0 °F 62% 30.10 in 10.0 mi SW 6.9 mph - N/A   Clear
7:54 PM 57.9 °F 48.0 °F 70% 30.10 in 9.0 mi West 9.2 mph - N/A   Clear
8:54 PM 55.9 °F 48.0 °F 75% 30.10 in 10.0 mi SW 4.6 mph - N/A   Clear
9:54 PM 55.0 °F 48.0 °F 77% 30.10 in 10.0 mi South 6.9 mph - N/A   Clear
10:54 PM 54.0 °F 46.9 °F 77% 30.09 in 10.0 mi South 8.1 mph - N/A   Clear
11:54 PM 53.1 °F 48.0 °F 83% 30.07 in 9.0 mi South 4.6 mph - N/A   Clear